Time,TemperatureF,DewpointF,PressureIn,WindDirection,WindDirectionDegrees,WindSpeedMPH,WindSpeedGustMPH,Humidity,HourlyPrecipIn,Conditions,Clouds,dailyrainin,SolarRadiationWatts/m^2,SoftwareType,DateUTC
2013-06-11 00:22:00,68.0,68.0,-100.00,SW,226,4.0,6.0,100,0.00,,,0.00,0.000000,,2013-06-11 10:22:00,
2013-06-11 00:33:00,68.0,68.0,-100.00,SW,226,4.0,6.0,100,0.00,,,0.00,0.000000,,2013-06-11 10:33:00,
2013-06-11 00:42:00,68.0,68.0,-100.00,SW,226,4.0,6.0,100,0.00,,,0.00,0.000000,,2013-06-11 10:42:00,
2013-06-11 00:52:00,68.0,68.0,-100.00,SW,226,4.0,6.0,100,0.00,,,0.00,0.000000,,2013-06-11 10:52:00,
2013-06-11 01:22:00,69.0,69.0,-100.00,SW,224,4.0,7.0,100,0.00,,,-99.99,0.000000,,2013-06-11 11:22:00,
2013-06-11 01:32:00,69.0,69.0,-100.00,SW,224,4.0,7.0,100,0.00,,,-99.99,0.000000,,2013-06-11 11:32:00,
2013-06-11 01:41:00,69.0,69.0,-100.00,SW,224,4.0,7.0,100,0.00,,,-99.99,0.000000,,2013-06-11 11:41:00,
2013-06-11 01:52:00,69.0,69.0,-100.00,SW,224,4.0,7.0,100,0.00,,,-99.99,0.000000,,2013-06-11 11:52:00,
2013-06-11 02:22:00,67.0,67.0,-100.00,SW,220,2.0,6.0,100,0.00,,,-99.99,0.000000,,2013-06-11 12:22:00,
2013-06-11 02:32:00,67.0,67.0,-100.00,SW,220,2.0,6.0,100,0.00,,,-99.99,0.000000,,2013-06-11 12:32:00,
2013-06-11 02:42:00,67.0,67.0,-100.00,SW,220,2.0,6.0,100,0.00,,,-99.99,0.000000,,2013-06-11 12:42:00,
2013-06-11 02:52:00,67.0,67.0,-100.00,SW,220,2.0,6.0,100,0.00,,,-99.99,0.000000,,2013-06-11 12:52:00,
2013-06-11 03:22:00,66.0,66.0,-100.00,SW,228,4.0,6.0,100,0.00,,,-99.99,0.000000,,2013-06-11 13:22:00,
2013-06-11 03:32:00,66.0,66.0,-100.00,SW,228,4.0,6.0,100,0.00,,,-99.99,0.000000,,2013-06-11 13:32:00,
2013-06-11 03:42:00,66.0,66.0,-100.00,SW,228,4.0,6.0,100,0.00,,,-99.99,0.000000,,2013-06-11 13:42:00,
2013-06-11 03:52:00,66.0,66.0,-100.00,SW,228,4.0,6.0,100,0.00,,,-99.99,0.000000,,2013-06-11 13:52:00,
2013-06-11 04:22:00,67.0,67.0,-100.00,SW,231,2.0,6.0,100,0.00,,,0.00,0.000000,,2013-06-11 14:22:00,
2013-06-11 04:32:00,67.0,67.0,-100.00,SW,231,2.0,6.0,100,0.00,,,0.00,0.000000,,2013-06-11 14:32:00,
2013-06-11 04:42:00,67.0,67.0,-100.00,SW,231,2.0,6.0,100,0.00,,,0.00,0.000000,,2013-06-11 14:42:00,
2013-06-11 04:52:00,67.0,67.0,-100.00,SW,231,2.0,6.0,100,0.00,,,0.00,0.000000,,2013-06-11 14:52:00,
2013-06-11 05:22:00,66.0,66.0,-100.00,WNW,285,2.0,5.0,100,0.00,,,0.00,0.000000,,2013-06-11 15:22:00,
2013-06-11 05:33:00,66.0,66.0,-100.00,WNW,285,2.0,5.0,100,0.00,,,0.00,0.000000,,2013-06-11 15:33:00,
2013-06-11 05:42:00,66.0,66.0,-100.00,WNW,285,2.0,5.0,100,0.00,,,0.00,0.000000,,2013-06-11 15:42:00,
2013-06-11 05:53:00,66.0,66.0,-100.00,WNW,285,2.0,5.0,100,0.00,,,0.00,0.000000,,2013-06-11 15:53:00,
2013-06-11 06:22:00,66.0,66.0,-100.00,SSE,154,1.0,6.0,100,0.00,,,-99.99,0.000000,,2013-06-11 16:22:00,
2013-06-11 06:32:00,66.0,66.0,-100.00,SSE,154,1.0,6.0,100,0.00,,,-99.99,0.000000,,2013-06-11 16:32:00,
2013-06-11 06:42:00,66.0,66.0,-100.00,SSE,154,1.0,6.0,100,0.00,,,-99.99,0.000000,,2013-06-11 16:42:00,
2013-06-11 06:52:00,66.0,66.0,-100.00,SSE,154,1.0,6.0,100,0.00,,,-99.99,0.000000,,2013-06-11 16:52:00,
2013-06-11 07:22:00,68.0,68.0,-100.00,WSW,245,5.0,6.0,100,0.00,,,0.00,18.000000,,2013-06-11 17:22:00,
2013-06-11 07:32:00,68.0,68.0,-100.00,WSW,245,5.0,6.0,100,0.00,,,0.00,18.000000,,2013-06-11 17:32:00,
2013-06-11 07:43:00,68.0,68.0,-100.00,WSW,245,5.0,6.0,100,0.00,,,0.00,18.000000,,2013-06-11 17:43:00,
2013-06-11 07:52:00,68.0,68.0,-100.00,WSW,245,5.0,6.0,100,0.00,,,0.00,18.000000,,2013-06-11 17:52:00,
2013-06-11 08:22:00,74.0,71.0,-100.00,NW,305,2.0,6.0,89,0.00,,,0.00,61.000000,,2013-06-11 18:22:00,
2013-06-11 08:32:00,74.0,71.0,-100.00,NW,305,2.0,6.0,89,0.00,,,0.00,61.000000,,2013-06-11 18:32:00,
2013-06-11 08:42:00,74.0,71.0,-100.00,NW,305,2.0,6.0,89,0.00,,,0.00,61.000000,,2013-06-11 18:42:00,
2013-06-11 08:52:00,74.0,71.0,-100.00,NW,305,2.0,6.0,89,0.00,,,0.00,61.000000,,2013-06-11 18:52:00,
2013-06-11 09:22:00,74.0,70.0,-100.00,NE,51,3.0,9.0,88,0.00,,,0.00,85.000000,,2013-06-11 19:22:00,
2013-06-11 09:32:00,74.0,70.0,-100.00,NE,51,3.0,9.0,88,0.00,,,0.00,85.000000,,2013-06-11 19:32:00,
2013-06-11 09:42:00,74.0,70.0,-100.00,NE,51,3.0,9.0,88,0.00,,,0.00,85.000000,,2013-06-11 19:42:00,
2013-06-11 09:52:00,74.0,70.0,-100.00,NE,51,3.0,9.0,88,0.00,,,0.00,85.000000,,2013-06-11 19:52:00,
2013-06-11 10:22:00,76.0,71.0,-100.00,ENE,57,7.0,17.0,85,0.00,,,0.00,143.000000,,2013-06-11 20:22:00,
2013-06-11 10:32:00,76.0,71.0,-100.00,ENE,57,7.0,17.0,85,0.00,,,0.00,143.000000,,2013-06-11 20:32:00,
2013-06-11 10:42:00,76.0,71.0,-100.00,ENE,57,7.0,17.0,85,0.00,,,0.00,143.000000,,2013-06-11 20:42:00,
2013-06-11 10:52:00,76.0,71.0,-100.00,ENE,57,7.0,17.0,85,0.00,,,0.00,143.000000,,2013-06-11 20:52:00,
2013-06-11 11:22:00,77.0,71.0,-100.00,ENE,69,7.0,17.0,81,0.00,,,0.00,169.000000,,2013-06-11 21:22:00,
2013-06-11 11:33:00,77.0,71.0,-100.00,ENE,69,7.0,17.0,81,0.00,,,0.00,169.000000,,2013-06-11 21:33:00,
2013-06-11 11:42:00,77.0,71.0,-100.00,ENE,69,7.0,17.0,81,0.00,,,0.00,169.000000,,2013-06-11 21:42:00,
2013-06-11 11:52:00,77.0,71.0,-100.00,ENE,69,7.0,17.0,81,0.00,,,0.00,169.000000,,2013-06-11 21:52:00,
2013-06-11 12:22:00,79.0,71.0,-100.00,East,87,9.0,19.0,77,0.00,,,0.00,263.000000,,2013-06-11 22:22:00,
2013-06-11 12:32:00,79.0,71.0,-100.00,East,87,9.0,19.0,77,0.00,,,0.00,263.000000,,2013-06-11 22:32:00,
2013-06-11 12:42:00,79.0,71.0,-100.00,East,87,9.0,19.0,77,0.00,,,0.00,263.000000,,2013-06-11 22:42:00,
2013-06-11 12:52:00,79.0,71.0,-100.00,East,87,9.0,19.0,77,0.00,,,0.00,263.000000,,2013-06-11 22:52:00,
2013-06-11 13:22:00,78.0,69.0,-100.00,ENE,72,9.0,19.0,75,0.00,,,0.00,267.000000,,2013-06-11 23:22:00,
2013-06-11 13:32:00,78.0,69.0,-100.00,ENE,72,9.0,19.0,75,0.00,,,0.00,267.000000,,2013-06-11 23:32:00,
2013-06-11 13:42:00,78.0,69.0,-100.00,ENE,72,9.0,19.0,75,0.00,,,0.00,267.000000,,2013-06-11 23:42:00,
2013-06-11 13:52:00,78.0,69.0,-100.00,ENE,72,9.0,19.0,75,0.00,,,0.00,267.000000,,2013-06-11 23:52:00,
2013-06-11 14:22:00,80.0,70.0,-100.00,East,80,9.0,16.0,72,0.00,,,0.00,253.000000,,2013-06-12 00:22:00,
2013-06-11 14:32:00,80.0,70.0,-100.00,East,80,9.0,16.0,72,0.00,,,0.00,253.000000,,2013-06-12 00:32:00,
2013-06-11 14:42:00,80.0,70.0,-100.00,East,80,9.0,16.0,72,0.00,,,0.00,253.000000,,2013-06-12 00:42:00,
2013-06-11 14:52:00,80.0,70.0,-100.00,East,80,9.0,16.0,72,0.00,,,0.00,253.000000,,2013-06-12 00:52:00,
2013-06-11 15:22:00,81.0,71.0,-100.00,East,89,10.0,19.0,72,0.00,,,0.00,268.000000,,2013-06-12 01:22:00,
2013-06-11 15:32:00,81.0,71.0,-100.00,East,89,10.0,19.0,72,0.00,,,0.00,268.000000,,2013-06-12 01:32:00,
2013-06-11 15:42:00,81.0,71.0,-100.00,East,89,10.0,19.0,72,0.00,,,0.00,268.000000,,2013-06-12 01:42:00,
2013-06-11 15:52:00,81.0,71.0,-100.00,East,89,10.0,19.0,72,0.00,,,0.00,268.000000,,2013-06-12 01:52:00,
2013-06-11 16:22:00,81.0,72.0,-100.00,ENE,69,8.0,21.0,73,0.00,,,0.00,267.000000,,2013-06-12 02:22:00,
2013-06-11 16:32:00,81.0,72.0,-100.00,ENE,69,8.0,21.0,73,0.00,,,0.00,267.000000,,2013-06-12 02:32:00,
2013-06-11 16:42:00,81.0,72.0,-100.00,ENE,69,8.0,21.0,73,0.00,,,0.00,267.000000,,2013-06-12 02:42:00,
2013-06-11 16:52:00,81.0,72.0,-100.00,ENE,69,8.0,21.0,73,0.00,,,0.00,267.000000,,2013-06-12 02:52:00,
2013-06-11 17:22:00,78.0,70.0,-100.00,ENE,74,9.0,18.0,77,0.01,,,0.01,151.000000,,2013-06-12 03:22:00,
2013-06-11 17:32:00,78.0,70.0,-100.00,ENE,74,9.0,18.0,77,0.01,,,0.01,151.000000,,2013-06-12 03:32:00,
2013-06-11 17:42:00,78.0,70.0,-100.00,ENE,74,9.0,18.0,77,0.01,,,0.01,151.000000,,2013-06-12 03:42:00,
2013-06-11 17:53:00,78.0,70.0,-100.00,ENE,74,9.0,18.0,77,0.01,,,0.01,151.000000,,2013-06-12 03:53:00,
2013-06-11 18:23:00,76.0,70.0,-100.00,East,83,6.0,18.0,82,0.00,,,0.01,79.000000,,2013-06-12 04:23:00,
2013-06-11 18:33:00,76.0,70.0,-100.00,East,83,6.0,18.0,82,0.00,,,0.01,79.000000,,2013-06-12 04:33:00,
2013-06-11 18:42:00,76.0,70.0,-100.00,East,83,6.0,18.0,82,0.00,,,0.01,79.000000,,2013-06-12 04:42:00,
2013-06-11 18:52:00,76.0,70.0,-100.00,East,83,6.0,18.0,82,0.00,,,0.01,79.000000,,2013-06-12 04:52:00,
2013-06-11 19:22:00,73.0,69.0,-100.00,ESE,114,6.0,12.0,88,0.00,,,0.01,22.000000,,2013-06-12 05:22:00,
2013-06-11 19:32:00,73.0,69.0,-100.00,ESE,114,6.0,12.0,88,0.00,,,0.01,22.000000,,2013-06-12 05:32:00,
2013-06-11 19:42:00,73.0,69.0,-100.00,ESE,114,6.0,12.0,88,0.00,,,0.01,22.000000,,2013-06-12 05:42:00,
2013-06-11 19:52:00,73.0,69.0,-100.00,ESE,114,6.0,12.0,88,0.00,,,0.01,22.000000,,2013-06-12 05:52:00,
2013-06-11 20:22:00,73.0,71.0,-100.00,NE,34,1.0,10.0,92,0.00,,,0.01,1.000000,,2013-06-12 06:22:00,
2013-06-11 20:32:00,73.0,71.0,-100.00,NE,34,1.0,10.0,92,0.00,,,0.01,1.000000,,2013-06-12 06:32:00,
2013-06-11 20:42:00,73.0,71.0,-100.00,NE,34,1.0,10.0,92,0.00,,,0.01,1.000000,,2013-06-12 06:42:00,
2013-06-11 20:52:00,73.0,71.0,-100.00,NE,34,1.0,10.0,92,0.00,,,0.01,1.000000,,2013-06-12 06:52:00,
2013-06-11 21:22:00,71.0,69.0,-100.00,ENE,72,4.0,9.0,95,0.00,,,-99.99,0.000000,,2013-06-12 07:22:00,
2013-06-11 21:33:00,71.0,69.0,-100.00,ENE,72,4.0,9.0,95,0.00,,,-99.99,0.000000,,2013-06-12 07:33:00,
2013-06-11 21:43:00,71.0,69.0,-100.00,ENE,72,4.0,9.0,95,0.00,,,-99.99,0.000000,,2013-06-12 07:43:00,
2013-06-11 21:53:00,71.0,69.0,-100.00,ENE,72,4.0,9.0,95,0.00,,,-99.99,0.000000,,2013-06-12 07:53:00,
2013-06-11 22:33:00,70.0,70.0,-100.00,East,100,1.0,9.0,99,0.00,,,0.01,0.000000,,2013-06-12 08:33:00,
2013-06-11 22:43:00,70.0,70.0,-100.00,East,100,1.0,9.0,99,0.00,,,0.01,0.000000,,2013-06-12 08:43:00,
2013-06-11 22:53:00,70.0,70.0,-100.00,East,100,1.0,9.0,99,0.00,,,0.01,0.000000,,2013-06-12 08:53:00,
2013-06-11 23:22:00,69.0,69.0,-100.00,South,174,3.0,7.0,100,0.00,,,-99.99,0.000000,,2013-06-12 09:22:00,
2013-06-11 23:33:00,69.0,69.0,-100.00,South,174,3.0,7.0,100,0.00,,,-99.99,0.000000,,2013-06-12 09:33:00,
2013-06-11 23:42:00,69.0,69.0,-100.00,South,174,3.0,7.0,100,0.00,,,-99.99,0.000000,,2013-06-12 09:42:00,
2013-06-11 23:53:00,69.0,69.0,-100.00,South,174,3.0,7.0,100,0.00,,,-99.99,0.000000,,2013-06-12 09:53:00,